Location: Voyageurs National Park
(48.5020°N, 92.9292°W)
Time: 03:46:05
(UTC-05:00)

Amateur Radio Satellites - All Passes

Search period start: 20 August 2014 03:16
Search period end: 21 August 2014 03:16
Location: Voyageurs National Park, 48.5020°N, 92.9292°W

Satellite Date Start Highest point End Downlink Frequencies (MHz)
Time Altitude Azimuth
Saudisat 1A 20 Aug 03:21:14 03:25:32 50° 315° (NW) 03:29:51 436.775 MHz
Gurwin Techsat 1B 20 Aug 03:21:37 03:26:14 29° 94° (E) 03:30:49 435.225 FM
Oscar 19 20 Aug 03:29:43 03:34:50 59° 290° (WNW) 03:39:56 437.125 CW, 437.150 USB
ITAMSAT 1 20 Aug 03:34:52 03:40:04 76° 104° (ESE) 03:45:14 435.822 SSB
Uribyol 2 20 Aug 03:47:59 03:53:11 81° 287° (WNW) 03:58:21 436.500 FM
AO-Echo 20 Aug 03:52:25 03:57:11 68° 288° (WNW) 04:01:50 ?
JAS-1B 20 Aug 03:53:49 04:01:52 80° 104° (ESE) 04:08:28 435.800 - 435.900 CW/SSB
AO-27 20 Aug 04:00:45 04:05:55 67° 289° (WNW) 04:11:02 436.795 MHz FM
Oscar 16 20 Aug 04:02:52 04:07:26 32° 296° (WNW) 04:12:00 437.025 USB, Beacon 2401.1428
Sapphire 20 Aug 04:12:52 04:18:10 50° 48° (NE) 04:23:26 437.095 MHz 1200 baud AX-25 AFSK
TMSAT-1 20 Aug 04:20:39 04:25:57 68° 102° (ESE) 04:31:13 436.925 FM
OPAL 20 Aug 04:20:44 04:25:44 82° 71° (ENE) 04:30:51 ?
AO-7 20 Aug 04:21:01 04:27:21 23° 90° (E) 04:33:36 29.400 - 29.500 MHz
Uosat F 20 Aug 04:32:53 04:36:29 20° 91° (E) 04:40:05 435.120 FM
KITSAT 1 20 Aug 04:35:08 04:42:39 40° 325° (NW) 04:50:11 435.175 FM
PCSat 20 Aug 04:43:39 04:49:07 83° 55° (NE) 04:54:33 145.825 MHz
Gurwin Techsat 1B 20 Aug 05:01:20 05:06:23 45° 293° (WNW) 05:11:25 435.225 FM
Saudisat 1A 20 Aug 05:03:32 05:06:08 15° 337° (NNW) 05:08:44 436.775 MHz
Oscar 19 20 Aug 05:11:43 05:13:09 11° 309° (NW) 05:14:35 437.125 CW, 437.150 USB
ITAMSAT 1 20 Aug 05:15:26 05:19:00 19° 303° (WNW) 05:22:34 435.822 SSB
Uribyol 2 20 Aug 05:29:05 05:31:53 15° 306° (NW) 05:34:40 436.500 FM
AO-Echo 20 Aug 05:33:44 05:35:03 11° 308° (NW) 05:36:22 ?
AO-27 20 Aug 05:42:27 05:44:29 12° 308° (NW) 05:46:32 436.795 MHz FM
JAS-1B 20 Aug 05:45:05 05:51:30 27° 309° (NW) 05:57:06 435.800 - 435.900 CW/SSB
STRAND 1 20 Aug 05:46:27 05:50:25 23° 60° (ENE) 05:54:24 ?
Sapphire 20 Aug 05:56:39 06:01:25 32° 248° (WSW) 06:06:10 437.095 MHz 1200 baud AX-25 AFSK
TMSAT-1 20 Aug 06:01:28 06:05:24 22° 301° (WNW) 06:09:20 436.925 FM
OPAL 20 Aug 06:02:26 06:05:17 15° 270° (W) 06:08:10 ?
Uosat F 20 Aug 06:10:46 06:15:43 62° 290° (WNW) 06:20:38 435.120 FM
AO-7 20 Aug 06:12:49 06:21:11 88° 291° (WNW) 06:29:29 29.400 - 29.500 MHz
PCSat 20 Aug 06:28:20 06:31:51 18° 254° (WSW) 06:35:22 145.825 MHz
KITSAT 1 20 Aug 06:34:25 06:40:34 23° 353° (N) 06:46:43 435.175 FM
SO-50 20 Aug 06:38:50 06:42:29 25° 115° (ESE) 06:46:13 436.795 FM
JAS-2 20 Aug 06:52:00 06:56:49 36° 96° (E) 07:01:36 435.800 - 435.900 CW/SSB, 435.910 FM
Hamsat 20 Aug 06:59:17 07:03:34 51° 99° (E) 07:07:49 145.90 MHz
STRAND 1 20 Aug 07:24:13 07:29:15 58° 259° (WSW) 07:34:19 ?
Uosat F 20 Aug 07:52:11 07:53:32 11° 309° (NW) 07:54:52 435.120 FM
SO-67 20 Aug 08:02:22 08:05:38 37° 97° (E) 08:08:52 435.3500 MHz FM
UOSAT-12 20 Aug 08:04:37 08:07:24 16° 110° (ESE) 08:10:12 437.025 FM, 437.400 FM
AO-7 20 Aug 08:06:29 08:13:00 27° 313° (NW) 08:19:29 29.400 - 29.500 MHz
SO-50 20 Aug 08:18:22 08:22:46 52° 315° (NW) 08:27:18 436.795 FM
Saudisat 1A 20 Aug 08:26:01 08:29:00 17° 26° (NNE) 08:31:59 436.775 MHz
KITSAT 1 20 Aug 08:32:07 08:38:57 29° 23° (NNE) 08:45:45 435.175 FM
Hamsat 20 Aug 08:36:00 08:39:12 20° 298° (WNW) 08:42:24 145.90 MHz
JAS-2 20 Aug 08:37:18 08:41:57 33° 296° (WNW) 08:46:32 435.800 - 435.900 CW/SSB, 435.910 FM
HO-68 20 Aug 09:06:28 09:11:49 22° 90° (E) 09:17:08 435.675 MHz FM
UKube-1 20 Aug 09:30:32 09:32:41 13° 89° (E) 09:34:49 145.840 MHz, 145.915 MHz
SO-67 20 Aug 09:36:05 09:38:27 17° 295° (WNW) 09:40:49 435.3500 MHz FM
UOSAT-12 20 Aug 09:42:16 09:46:55 82° 309° (NW) 09:51:41 437.025 FM, 437.400 FM
RS-15 20 Aug 09:48:32 09:58:56 50° 113° (ESE) 10:09:12 29.354 - 29.394 USB, Beacon 29.352 USB
Oscar 11 20 Aug 09:48:56 09:51:08 14° 88° (E) 09:53:19 145.825 FM, Beacon 2401.500 USB
SO-50 20 Aug 10:01:29 10:04:23 16° 338° (NNW) 10:07:20 436.795 FM
Saudisat 1A 20 Aug 10:05:00 10:09:25 66° 48° (NE) 10:13:48 436.775 MHz
KITSAT 1 20 Aug 10:27:48 10:35:54 69° 49° (NE) 10:43:56 435.175 FM
HO-68 20 Aug 10:53:10 11:00:21 83° 290° (WNW) 11:07:30 435.675 MHz FM
UKube-1 20 Aug 11:05:03 11:09:24 73° 287° (WNW) 11:13:43 145.840 MHz, 145.915 MHz
FUNcube-1 20 Aug 11:17:13 11:21:23 42° 98° (E) 11:25:38 145.950 - 145.970 MHz USB
Oscar 11 20 Aug 11:23:28 11:27:50 73° 286° (WNW) 11:32:11 145.825 FM, Beacon 2401.500 USB
UOSAT-12 20 Aug 11:24:12 11:27:48 21° 331° (NNW) 11:31:26 437.025 FM, 437.400 FM
Saudisat 1A 20 Aug 11:45:28 11:48:34 19° 247° (WSW) 11:51:39 436.775 MHz
SO-50 20 Aug 11:45:31 11:46:54 11° 3° (N) 11:48:18 436.795 FM
RS-15 20 Aug 12:00:12 12:11:05 62° 319° (NW) 12:21:58 29.354 - 29.394 USB, Beacon 29.352 USB
Oscar 16 20 Aug 12:07:36 12:10:31 15° 55° (NE) 12:13:26 437.025 USB, Beacon 2401.1428
KITSAT 1 20 Aug 12:23:46 12:30:48 35° 251° (WSW) 12:37:49 435.175 FM
HO-68 20 Aug 12:41:59 12:47:07 22° 311° (NW) 12:52:14 435.675 MHz FM
UKube-1 20 Aug 12:43:59 12:44:49 11° 306° (NW) 12:45:40 145.840 MHz, 145.915 MHz
JAS-1B 20 Aug 12:51:10 12:59:12 31° 53° (NE) 13:06:44 435.800 - 435.900 CW/SSB
FUNcube-1 20 Aug 12:54:04 12:57:36 25° 296° (WNW) 13:01:12 145.950 - 145.970 MHz USB
Oscar 11 20 Aug 13:02:25 13:03:14 11° 305° (NW) 13:04:03 145.825 FM, Beacon 2401.500 USB
UOSAT-12 20 Aug 13:08:06 13:09:44 12° 355° (N) 13:11:21 437.025 FM, 437.400 FM
Gurwin Techsat 1B 20 Aug 13:10:31 13:12:35 12° 51° (NE) 13:14:40 435.225 FM
Oscar 19 20 Aug 13:11:27 13:16:20 45° 67° (ENE) 13:21:15 437.125 CW, 437.150 USB
ITAMSAT 1 20 Aug 13:18:34 13:22:50 27° 61° (ENE) 13:27:07 435.822 SSB
SO-50 20 Aug 13:25:53 13:29:18 19° 27° (NNE) 13:32:46 436.795 FM
AO-Echo 20 Aug 13:30:44 13:35:21 34° 65° (ENE) 13:39:51 ?
Uribyol 2 20 Aug 13:31:04 13:35:42 35° 64° (ENE) 13:40:21 436.500 FM
AO-7 20 Aug 13:36:31 13:40:45 15° 34° (NE) 13:44:59 29.400 - 29.500 MHz
AO-27 20 Aug 13:43:45 13:48:36 42° 66° (ENE) 13:53:29 436.795 MHz FM
Oscar 16 20 Aug 13:43:58 13:49:07 85° 74° (ENE) 13:54:19 437.025 USB, Beacon 2401.1428
TMSAT-1 20 Aug 14:06:55 14:11:08 25° 60° (ENE) 14:15:23 436.925 FM
RS-15 20 Aug 14:16:16 14:26:02 35° 351° (N) 14:35:54 29.354 - 29.394 USB, Beacon 29.352 USB
ISS 20 Aug 14:29:41 14:30:35 11° 134° (SE) 14:31:30 145.800 FM
JAS-1B 20 Aug 14:38:46 14:48:44 89° 73° (ENE) 14:58:06 435.800 - 435.900 CW/SSB
Gurwin Techsat 1B 20 Aug 14:46:20 14:51:35 65° 71° (ENE) 14:56:51 435.225 FM
UOSAT-12 20 Aug 14:49:02 14:51:52 15° 20° (NNE) 14:54:42 437.025 FM, 437.400 FM
Oscar 19 20 Aug 14:51:27 14:55:51 28° 266° (W) 15:00:18 437.125 CW, 437.150 USB
ITAMSAT 1 20 Aug 14:57:03 15:02:05 50° 260° (W) 15:07:08 435.822 SSB
SO-50 20 Aug 15:05:57 15:10:42 70° 49° (NE) 15:15:31 436.795 FM
AO-Echo 20 Aug 15:09:17 15:14:05 37° 263° (W) 15:18:46 ?
Uribyol 2 20 Aug 15:10:23 15:15:09 37° 263° (W) 15:19:57 436.500 FM
AO-27 20 Aug 15:23:42 15:28:15 30° 265° (W) 15:32:49 436.795 MHz FM
AO-7 20 Aug 15:23:44 15:31:34 47° 58° (ENE) 15:39:23 29.400 - 29.500 MHz
Oscar 16 20 Aug 15:26:22 15:29:10 15° 273° (W) 15:31:59 437.025 USB, Beacon 2401.1428
TMSAT-1 20 Aug 15:45:31 15:50:43 57° 259° (W) 15:55:57 436.925 FM
MaSat-1 20 Aug 15:47:20 15:51:29 30° 107° (ESE) 15:55:55 437.345 MHz
Uosat F 20 Aug 15:49:28 15:54:09 41° 66° (ENE) 15:58:51 435.120 FM
ISS 20 Aug 16:03:28 16:06:44 55° 151° (SSE) 16:10:00 145.800 FM
OPAL 20 Aug 16:28:05 16:31:10 16° 91° (E) 16:34:16 ?
Gurwin Techsat 1B 20 Aug 16:28:08 16:32:01 20° 270° (W) 16:35:56 435.225 FM
UOSAT-12 20 Aug 16:28:38 16:33:12 45° 43° (NE) 16:37:43 437.025 FM, 437.400 FM
RS-15 20 Aug 16:31:38 16:41:54 42° 25° (NNE) 16:52:23 29.354 - 29.394 USB, Beacon 29.352 USB
JAS-1B 20 Aug 16:32:10 16:40:08 27° 273° (W) 16:47:51 435.800 - 435.900 CW/SSB
SO-50 20 Aug 16:47:22 16:50:50 20° 247° (WSW) 16:54:20 436.795 FM
JAS-2 20 Aug 17:08:03 17:13:33 30° 62° (ENE) 17:18:32 435.800 - 435.900 CW/SSB, 435.910 FM
AO-7 20 Aug 17:16:16 17:24:19 50° 259° (W) 17:32:24 29.400 - 29.500 MHz
MaSat-1 20 Aug 17:23:41 17:28:25 48° 308° (NW) 17:33:28 437.345 MHz
Uosat F 20 Aug 17:28:40 17:33:03 30° 265° (W) 17:37:28 435.120 FM
ISS 20 Aug 17:40:15 17:43:31 52° 351° (N) 17:46:48 145.800 FM
Hamsat 20 Aug 17:56:06 18:00:18 58° 72° (ENE) 18:04:34 145.90 MHz
OPAL 20 Aug 18:05:27 18:10:41 83° 289° (WNW) 18:15:54 ?
UOSAT-12 20 Aug 18:09:02 18:13:16 33° 243° (WSW) 18:17:26 437.025 FM, 437.400 FM
SO-67 20 Aug 18:39:24 18:42:13 24° 67° (ENE) 18:45:04 435.3500 MHz FM
RS-15 20 Aug 18:44:37 18:55:42 89° 233° (SW) 19:07:10 29.354 - 29.394 USB, Beacon 29.352 USB
JAS-2 20 Aug 18:51:50 18:58:25 57° 259° (W) 19:04:16 435.800 - 435.900 CW/SSB, 435.910 FM
Sapphire 20 Aug 19:00:14 19:03:56 19° 106° (ESE) 19:07:39 437.095 MHz 1200 baud AX-25 AFSK
MaSat-1 20 Aug 19:04:15 19:06:51 14° 330° (NNW) 19:09:30 437.345 MHz
ISS 20 Aug 19:17:17 19:20:34 54° 11° (N) 19:23:52 145.800 FM
PCSat 20 Aug 19:29:29 19:34:19 34° 113° (ESE) 19:39:11 145.825 MHz
STRAND 1 20 Aug 19:31:04 19:35:44 35° 97° (E) 19:40:23 ?
Hamsat 20 Aug 19:33:59 19:36:40 16° 271° (W) 19:39:23 145.90 MHz
HO-68 20 Aug 19:39:30 19:45:17 28° 53° (NE) 19:51:04 435.675 MHz FM
OPAL 20 Aug 19:45:47 19:48:49 16° 308° (NW) 19:51:52 ?
SO-67 20 Aug 20:12:15 20:15:13 26° 265° (W) 20:18:11 435.3500 MHz FM
UKube-1 20 Aug 20:29:21 20:32:35 21° 61° (ENE) 20:35:49 145.840 MHz, 145.915 MHz
Sapphire 20 Aug 20:41:19 20:46:44 78° 306° (NW) 20:52:12 437.095 MHz 1200 baud AX-25 AFSK
Oscar 11 20 Aug 20:47:34 20:50:32 18° 61° (ENE) 20:53:32 145.825 FM, Beacon 2401.500 USB
ISS 20 Aug 20:54:05 20:57:20 49° 210° (SSW) 21:00:34 145.800 FM
RS-15 20 Aug 20:57:56 21:06:41 28° 256° (WSW) 21:15:43 29.354 - 29.394 USB, Beacon 29.352 USB
STRAND 1 20 Aug 21:10:19 21:14:56 36° 295° (WNW) 21:19:32 ?
PCSat 20 Aug 21:12:24 21:17:37 47° 313° (NW) 21:22:53 145.825 MHz
HO-68 20 Aug 21:25:12 21:32:22 77° 254° (WSW) 21:39:33 435.675 MHz FM
UKube-1 20 Aug 22:04:14 22:08:29 51° 260° (W) 22:12:44 145.840 MHz, 145.915 MHz
FUNcube-1 20 Aug 22:17:29 22:21:31 52° 71° (ENE) 22:25:36 145.950 - 145.970 MHz USB
Oscar 11 20 Aug 22:22:05 22:26:20 57° 259° (W) 22:30:38 145.825 FM, Beacon 2401.500 USB
Sapphire 20 Aug 22:26:58 22:31:03 21° 328° (NNW) 22:35:10 437.095 MHz 1200 baud AX-25 AFSK
PCSat 20 Aug 22:59:11 23:02:25 16° 336° (NNW) 23:05:40 145.825 MHz
HO-68 20 Aug 23:17:09 23:21:15 16° 274° (W) 23:25:22 435.675 MHz FM
FUNcube-1 20 Aug 23:55:32 23:58:16 17° 270° (W) 00:01:02 145.950 - 145.970 MHz USB
MaSat-1 21 Aug 00:01:07 00:05:16 25° 42° (NE) 00:09:08 437.345 MHz
Sapphire 21 Aug 00:15:20 00:16:41 11° 354° (N) 00:18:02 437.095 MHz 1200 baud AX-25 AFSK
PCSat 21 Aug 00:47:09 00:48:19 11° 3° (N) 00:49:29 145.825 MHz
KITSAT 1 21 Aug 01:01:52 01:08:10 26° 105° (ESE) 01:14:28 435.175 FM
Oscar 19 21 Aug 01:21:23 01:23:06 12° 85° (E) 01:24:49 437.125 CW, 437.150 USB
MaSat-1 21 Aug 01:37:56 01:42:55 66° 244° (WSW) 01:47:20 437.345 MHz
Oscar 16 21 Aug 01:52:28 01:56:34 23° 92° (E) 02:00:39 437.025 USB, Beacon 2401.1428
Saudisat 1A 21 Aug 01:54:10 01:58:22 44° 121° (ESE) 02:02:35 436.775 MHz
AO-27 21 Aug 01:55:47 01:56:41 10° 85° (E) 01:57:35 436.795 MHz FM
Sapphire 21 Aug 01:59:44 02:02:39 14° 21° (NNE) 02:05:33 437.095 MHz 1200 baud AX-25 AFSK
JAS-1B 21 Aug 02:23:27 02:29:04 22° 84° (E) 02:34:02 435.800 - 435.900 CW/SSB
PCSat 21 Aug 02:30:13 02:34:03 19° 29° (NNE) 02:37:52 145.825 MHz
KITSAT 1 21 Aug 02:54:33 03:02:41 85° 306° (NW) 03:10:50 435.175 FM
Oscar 19 21 Aug 02:58:05 03:03:19 78° 104° (ESE) 03:08:31 437.125 CW, 437.150 USB
Gurwin Techsat 1B 21 Aug 02:59:35 03:03:21 19° 90° (E) 03:07:06 435.225 FM
ITAMSAT 1 21 Aug 03:05:56 03:10:53 43° 98° (E) 03:15:47 435.822 SSB
